Location: Jaktorów
(52.0850°N, 20.5527°E)
Time: 11:48:20
(UTC+02:00)

ISS - Visible Passes

Search period start: 22 September 2018 00:00
Search period end: 02 October 2018 00:00
Orbit: 403 x 408 km, 51.6° (Epoch: 22 September)

Date Brightness Start Highest point End Pass type
(mag) Time Alt. Az. Time Alt. Az. Time Alt. Az.
22 Sep -1.4 20:28:14 10° SSW 20:28:50 13° S 20:28:50 13° S visible
23 Sep -1.9 19:37:16 10° S 19:39:09 14° SE 19:39:34 14° SE visible
23 Sep -1.0 21:11:54 10° SW 21:12:17 13° SW 21:12:17 13° SW visible
24 Sep -2.9 20:20:14 10° SW 20:22:49 33° S 20:22:49 33° S visible
25 Sep -2.5 19:28:44 10° SSW 19:31:30 25° SSE 19:33:12 17° ESE visible
25 Sep -1.8 21:04:24 10° WSW 21:05:53 24° WSW 21:05:53 24° WSW visible
26 Sep -3.7 20:12:33 10° WSW 20:15:47 55° SSE 20:16:08 52° SE visible
27 Sep -3.2 19:20:47 10° SW 19:23:55 40° SSE 19:26:17 16° E visible
27 Sep -2.3 20:56:58 10° W 20:58:57 34° W 20:58:57 34° W visible
28 Sep -3.9 20:05:01 10° WSW 20:08:19 75° S 20:09:02 51° E visible
28 Sep -0.5 21:41:29 10° W 21:41:42 11° W 21:41:42 11° W visible
29 Sep -3.7 19:13:06 10° WSW 19:16:23 61° SSE 19:19:03 14° E visible
29 Sep -2.5 20:49:31 10° W 20:51:43 39° W 20:51:43 39° W visible
30 Sep -3.9 19:57:31 10° W 20:00:51 85° S 20:01:42 47° E visible
30 Sep -0.6 21:34:01 10° W 21:34:21 12° W 21:34:21 12° W visible
01 Oct -3.8 19:05:32 10° WSW 19:08:51 79° S 19:11:39 14° E visible
01 Oct -2.6 20:42:01 10° W 20:44:18 40° W 20:44:18 40° W visible
